Waarnemingen

Advertentie
Mijn weer
Gilze-Rijen, Nederland (6350): temperatuur & dauwpunt: 16.02.2017 11:00:00 - 22.02.2017 11:00:00 (CET)Gilze-Rijen, Nederland (6350): temperatuur 5cm: 16.02.2017 11:00:00 - 22.02.2017 11:00:00 (CET)Gilze-Rijen, Nederland (6350): windsnelheid & windstoten: 16.02.2017 11:00:00 - 22.02.2017 11:00:00 (CET)Gilze-Rijen, Nederland (6350): windrichting: 16.02.2017 11:00:00 - 22.02.2017 11:00:00 (CET)Gilze-Rijen, Nederland (6350): luchtdruk: 16.02.2017 11:00:00 - 22.02.2017 11:00:00 (CET)Gilze-Rijen, Nederland (6350): zicht: 16.02.2017 11:00:00 - 22.02.2017 11:00:00 (CET)Gilze-Rijen, Nederland (6350): neerslag: 16.02.2017 11:00:00 - 22.02.2017 11:00:00 (CET)
Datum & Tijd tt [°C] td [°C] tt 5cm [°C] ff [km/u] ff [kn] fx [km/u] fx [kn] dd ppp [hPa] vv [km] rr [mm]
22.02.2017 11:00:00 11,0 8,8 10,7 26 14 47 25 WZW 1007,3 10 0,0
22.02.2017 10:00:00 10,7 9,1 10,4 22 12 43 23 WZW 1007,4 10 0,0
22.02.2017 09:00:00 10,4 9,0 10,0 26 14 43 23 WZW 1007,5 10 0,1
22.02.2017 08:00:00 9,8 9,0 9,6 24 13 43 23 WZW 1007,5 4,2 0,8
22.02.2017 07:00:00 10,0 8,8 9,7 24 13 47 25 WZW 1007,3 6 1,3
22.02.2017 06:00:00 10,1 8,8 9,7 24 13 47 25 WZW 1007,7 7 0,8
22.02.2017 05:00:00 10,5 7,9 10,2 28 15 54 29 WZW 1007,8 10 0,0
22.02.2017 04:00:00 10,8 7,8 10,3 28 15 54 29 WZW 1008,1 10 0,0
22.02.2017 03:00:00 10,7 8,5 10,2 29 16 50 27 ZW 1009,3 10 0,0
22.02.2017 02:00:00 10,7 8,9 10,3 24 13 43 23 ZW 1009,6 10 0,0
22.02.2017 01:00:00 10,8 9,0 10,3 22 12 43 23 ZW 1010,3 10 0,0
22.02.2017 00:00:00 10,6 9,2 10,2 22 12 40 21 ZW 1010,8 8 0,0
21.02.2017 23:00:00 10,4 9,5 10,1 22 12 47 25 ZW 1011,3 5 0,3
21.02.2017 22:00:00 10,4 9,6 10,1 18 10 32 18 ZW 1012,1 3,9 0,2
21.02.2017 21:00:00 10,2 9,6 10,0 16 9 29 16 ZW 1012,7 2,6 0,0
21.02.2017 20:00:00 9,7 9,1 9,4 11 6 18 10 ZZW 1013,5 6 0,0
21.02.2017 19:00:00 9,7 8,1 9,6 13 7 22 12 ZZW 1014,4 10 0,0
21.02.2017 18:00:00 9,9 6,6 9,5 8 4 18 10 ZZW 1014,7 10 0,0
21.02.2017 17:00:00 10,2 6,5 10,1 13 7 22 12 WZW 1015,0 10 0,0
21.02.2017 16:00:00 11,0 6,1 11,0 13 7 25 14 W 1015,7 10 0,0
21.02.2017 15:00:00 11,3 6,2 11,7 15 8 29 16 W 1015,7 10 0,0
21.02.2017 14:00:00 11,8 6,4 13,1 16 9 29 16 WNW 1016,3 10 0,0
21.02.2017 13:00:00 11,6 6,8 12,0 22 12 32 18 WNW 1016,4 10 0,0
21.02.2017 12:00:00 11,1 6,3 11,3 21 11 32 18 WNW 1016,7 10 0,0
21.02.2017 11:00:00 11,0 8,1 10,7 21 11 32 18 WNW 1016,6 10 0,0
21.02.2017 10:00:00 10,3 8,6 10,3 18 10 29 16 - 1016,2 10 0,0
21.02.2017 09:00:00 10,2 8,8 9,9 16 9 29 16 W 1015,6 9 0,0
21.02.2017 08:00:00 9,9 8,4 9,3 13 7 29 16 W 1015,2 9 0,0
21.02.2017 07:00:00 9,6 8,5 9,1 13 7 25 14 W 1014,8 9 0,0
21.02.2017 06:00:00 8,9 7,9 7,8 9 5 22 12 WZW 1014,7 9 0,0
21.02.2017 05:00:00 9,5 8,3 8,9 11 6 22 12 W 1014,9 10 0,0
21.02.2017 04:00:00 9,7 8,0 8,8 13 7 25 14 W 1014,7 10 0,0
21.02.2017 03:00:00 10,1 8,6 9,6 16 9 29 16 WNW 1015,2 10 0,0
21.02.2017 02:00:00 10,2 9,0 9,8 16 9 32 18 W 1015,0 10 0,0
21.02.2017 01:00:00 10,6 10,1 10,4 21 11 32 18 W 1015,1 4,3 0,2
21.02.2017 00:00:00 10,7 10,1 10,5 16 9 32 18 W 1015,1 3,0 1,0
20.02.2017 23:00:00 10,9 10,4 10,7 18 10 32 18 W 1014,9 2,5 0,7
20.02.2017 22:00:00 11,1 10,3 10,8 18 10 32 18 WZW 1015,0 5 1,2
20.02.2017 21:00:00 11,2 10,3 10,9 16 9 22 12 WZW 1014,9 3,6 0,4
20.02.2017 20:00:00 11,3 10,2 10,9 15 8 29 16 ZW 1014,8 7 0,0
20.02.2017 19:00:00 11,3 10,2 10,9 13 7 32 18 WZW 1015,1 8 0,0
20.02.2017 18:00:00 11,0 10,1 10,7 16 9 29 16 ZW 1014,9 6 0,0
20.02.2017 17:00:00 10,6 10,2 10,4 16 9 32 18 WZW 1015,0 3,3 0,0
20.02.2017 16:00:00 10,3 9,9 10,2 18 10 32 18 WZW 1015,2 3,1 0,0
20.02.2017 15:00:00 10,3 9,8 10,3 18 10 32 18 WZW 1015,7 4,3 0,1
20.02.2017 14:00:00 10,1 9,7 10,3 16 9 32 18 ZW 1015,8 2,4 0,1
20.02.2017 13:00:00 9,7 9,3 9,8 15 8 29 16 WZW 1016,8 1,7 0,1
20.02.2017 12:00:00 9,5 9,0 9,6 16 9 32 18 ZW 1017,1 3,1 0,1
20.02.2017 11:00:00 9,2 8,7 9,3 16 9 29 16 ZW 1017,4 1,8 0,0
20.02.2017 10:00:00 8,9 8,2 8,7 16 9 29 16 ZW 1017,7 3,9 0,0
20.02.2017 09:00:00 8,6 8,1 8,4 15 8 25 14 ZW 1017,8 2,9 0,1
20.02.2017 08:00:00 8,3 7,9 8,1 13 7 25 14 ZW 1018,1 2,3 0,0
20.02.2017 07:00:00 7,9 7,7 7,7 15 8 29 16 ZW 1017,8 1,6 0,1
20.02.2017 06:00:00 7,7 7,3 7,5 13 7 22 12 ZZW 1018,4 1,7 0,0
20.02.2017 05:00:00 7,6 7,1 7,4 15 8 22 12 ZZW 1018,9 1,9 0,0
20.02.2017 04:00:00 7,5 7,0 7,4 15 8 25 14 ZW 1019,5 1,8 0,0
20.02.2017 03:00:00 7,7 6,8 7,5 15 8 25 14 ZZW 1019,8 3,3 0,0
20.02.2017 02:00:00 7,9 6,5 7,5 9 5 18 10 ZZW 1020,7 7 0,0
20.02.2017 01:00:00 7,7 6,1 7,2 8 4 14 8 ZZW 1021,1 8 0,0
20.02.2017 00:00:00 7,8 6,0 7,3 8 4 11 6 ZW 1021,3 9 0,0
19.02.2017 23:00:00 7,4 5,8 6,9 8 4 11 6 ZW 1021,4 9 0,0
19.02.2017 22:00:00 7,2 5,9 6,7 4 2 11 6 WZW 1021,9 6 0,0
19.02.2017 21:00:00 7,1 5,9 6,5 5 3 14 8 WZW 1021,6 5 0,0
19.02.2017 20:00:00 7,2 5,9 6,8 9 5 14 8 WZW 1021,8 6 0,0
19.02.2017 19:00:00 7,5 6,0 7,1 9 5 14 8 WZW 1021,4 7 0,0
19.02.2017 18:00:00 8,0 6,2 7,8 5 3 14 8 WZW 1020,9 8 0,0
19.02.2017 17:00:00 8,4 6,3 8,3 9 5 18 10 W 1020,9 7 0,0
19.02.2017 16:00:00 8,4 6,2 8,3 11 6 22 12 W 1020,9 7 0,0
19.02.2017 15:00:00 8,4 6,2 8,6 11 6 22 12 WZW 1020,8 7 0,0
19.02.2017 14:00:00 7,7 5,7 7,7 11 6 18 10 WZW 1021,1 6 0,0
19.02.2017 13:00:00 6,8 5,0 6,8 9 5 14 8 ZW 1021,5 6 0,0
19.02.2017 12:00:00 5,6 4,5 5,4 11 6 18 10 ZW 1021,8 2,8 0,0
19.02.2017 11:00:00 4,9 4,2 5,0 13 7 22 12 ZW 1021,9 1,8 0,0
19.02.2017 10:00:00 3,8 3,5 3,8 13 7 22 12 ZW 1022,0 1,3 0,0
19.02.2017 09:00:00 2,8 2,7 2,8 15 8 22 12 ZW 1022,0 0,6 0,0
19.02.2017 08:00:00 2,3 1,5 1,8 13 7 22 12 ZW 1021,9 3,2 0,0
19.02.2017 07:00:00 2,4 1,1 1,1 13 7 18 10 ZZW 1021,8 6 0,0
19.02.2017 06:00:00 2,1 0,8 1,4 11 6 18 10 ZZW 1022,3 6 0,0
19.02.2017 05:00:00 2,4 0,9 1,1 13 7 18 10 ZZW 1022,6 6 0,0
19.02.2017 04:00:00 1,7 0,6 0,5 8 4 14 8 ZZW 1022,9 5 0,0
19.02.2017 03:00:00 2,8 1,8 1,5 13 7 18 10 ZZW 1023,2 4,9 0,0
19.02.2017 02:00:00 2,4 1,0 1,1 9 5 18 10 ZZW 1023,8 6 0,0
19.02.2017 01:00:00 2,5 0,8 0,1 11 6 14 8 ZZW 1024,4 9 0,0
19.02.2017 00:00:00 3,0 0,6 -0,9 8 4 14 8 ZZW 1024,7 10 0,0
18.02.2017 23:00:00 2,9 0,6 -1,9 11 6 14 8 Z 1024,7 10 0,0
18.02.2017 22:00:00 3,1 0,8 -2,6 8 4 11 6 Z 1024,9 10 0,0
18.02.2017 21:00:00 4,0 1,8 -2,5 5 3 7 4 Z 1025,1 10 0,0
18.02.2017 20:00:00 3,5 1,4 -1,8 4 2 11 6 ZW 1025,3 10 0,0
18.02.2017 19:00:00 5,0 1,7 0,1 8 4 11 6 ZZO 1025,4 10 0,0
18.02.2017 18:00:00 7,8 2,2 3,2 8 4 14 8 ZO 1025,4 10 0,0
18.02.2017 17:00:00 9,6 2,3 8,6 11 6 18 10 ZZO 1025,5 10 0,0
18.02.2017 16:00:00 10,8 2,7 11,3 11 6 22 12 Z 1025,8 22 0,0
18.02.2017 15:00:00 11,2 2,6 13,2 13 7 22 12 Z 1026,0 10 0,0
18.02.2017 14:00:00 10,8 3,4 12,4 11 6 18 10 ZZW 1026,5 10 0,0
18.02.2017 13:00:00 10,2 4,2 12,2 8 4 14 8 Z 1027,2 8 0,0
18.02.2017 12:00:00 8,1 6,2 9,2 5 3 11 6 Z 1027,7 4,5 0,0
18.02.2017 11:00:00 6,0 6,0 7,0 8 4 11 6 Z 1027,7 0,3 0,0
18.02.2017 10:00:00 5,1 5,0 5,5 8 4 11 6 Z 1027,6 1,1 0,0
18.02.2017 09:00:00 4,3 4,3 4,3 5 3 11 6 ZZO 1027,6 0,8 0,0
18.02.2017 08:00:00 3,7 3,7 3,7 9 5 11 6 Z 1027,6 0,6 0,0
18.02.2017 07:00:00 3,9 3,9 4,0 5 3 7 4 Z 1027,4 0,3 0,0
18.02.2017 06:00:00 4,0 4,0 4,1 4 2 7 4 ZZW 1027,6 0,2 0,0
18.02.2017 05:00:00 4,3 4,3 4,3 4 2 7 4 - 1027,4 0,2 0,0
18.02.2017 04:00:00 4,7 4,7 4,7 2 1 7 4 - 1027,5 0,2 0,0
18.02.2017 03:00:00 4,8 4,7 4,8 4 2 7 4 - 1028,0 0,6 0,0
18.02.2017 02:00:00 5,1 4,9 5,0 5 3 11 6 W 1028,1 1,6 0,0
18.02.2017 01:00:00 5,1 4,9 5,1 9 5 14 8 W 1028,3 1,5 0,0
18.02.2017 00:00:00 5,8 5,4 4,5 5 3 11 6 WZW 1028,2 2,2 0,0
17.02.2017 23:00:00 6,0 5,6 4,7 4 2 7 4 ZW 1028,3 3,3 0,0
17.02.2017 22:00:00 6,2 5,4 5,6 4 2 7 4 ZZW 1028,2 4,6 0,0
17.02.2017 21:00:00 6,8 5,9 6,3 8 4 14 8 W 1028,0 6 0,0
17.02.2017 20:00:00 7,2 6,2 6,9 9 5 14 8 W 1028,0 7 0,0
17.02.2017 19:00:00 7,7 6,0 7,2 5 3 11 6 W 1027,6 10 0,0
17.02.2017 18:00:00 7,8 5,9 7,4 11 6 18 10 WNW 1027,0 10 0,0
17.02.2017 17:00:00 8,6 6,1 8,5 13 7 22 12 WNW 1026,8 10 0,0
17.02.2017 16:00:00 8,9 6,0 9,2 16 9 25 14 WNW 1026,7 10 0,0
17.02.2017 15:00:00 9,1 5,7 9,5 16 9 29 16 WNW 1026,5 10 0,0
17.02.2017 14:00:00 9,2 6,2 9,6 16 9 29 16 NW 1026,5 10 0,0
17.02.2017 13:00:00 8,8 6,4 9,0 13 7 29 16 NW 1026,4 10 0,0
17.02.2017 12:00:00 8,7 7,0 9,5 18 10 29 16 W 1026,2 10 0,0
17.02.2017 11:00:00 7,3 6,0 7,3 13 7 25 14 W 1026,1 10 0,0
17.02.2017 10:00:00 6,8 6,1 6,8 11 6 22 12 W 1025,9 8 0,0
17.02.2017 09:00:00 6,6 6,0 6,5 11 6 18 10 W 1025,6 5 0,3
17.02.2017 08:00:00 6,4 5,8 6,2 11 6 22 12 WZW 1025,3 5 0,1
17.02.2017 07:00:00 6,4 5,6 6,2 11 6 18 10 W 1025,2 5 0,2
17.02.2017 06:00:00 6,4 5,2 5,9 9 5 18 10 WZW 1025,2 7 0,0
17.02.2017 05:00:00 5,7 4,9 4,8 11 6 18 10 WZW 1025,4 5 0,0
17.02.2017 04:00:00 5,6 5,1 4,8 8 4 18 10 ZW 1025,6 4,1 0,0
17.02.2017 03:00:00 5,8 5,2 4,9 9 5 18 10 WZW 1026,2 4,3 0,0
17.02.2017 02:00:00 5,3 4,9 3,7 8 4 14 8 ZW 1026,4 2,4 0,0
17.02.2017 01:00:00 4,8 4,4 3,2 9 5 14 8 WZW 1027,0 2,1 0,0
17.02.2017 00:00:00 5,0 4,6 3,2 9 5 14 8 ZW 1027,1 3,3 0,0
16.02.2017 23:00:00 5,9 5,2 4,5 8 4 11 6 WZW 1027,8 5 0,0
16.02.2017 22:00:00 6,3 5,4 5,6 9 5 14 8 ZW 1027,8 8 0,0
16.02.2017 21:00:00 6,5 5,2 5,5 8 4 11 6 WZW 1027,9 10 0,0
16.02.2017 20:00:00 7,0 5,3 5,5 8 4 18 10 W 1028,0 10 0,0
16.02.2017 19:00:00 8,0 5,9 7,2 9 5 14 8 WZW 1028,1 10 0,0
16.02.2017 18:00:00 8,2 5,5 6,5 5 3 22 12 ZW 1027,9 10 0,0
16.02.2017 17:00:00 9,6 6,1 9,6 13 7 22 12 W 1028,4 10 0,0
16.02.2017 16:00:00 9,4 6,3 9,9 9 5 18 10 ZW 1028,4 9 0,0
16.02.2017 15:00:00 8,9 6,2 9,6 11 6 22 12 WZW 1028,9 8 0,0
16.02.2017 14:00:00 8,5 6,3 9,3 15 8 22 12 WZW 1029,4 8 0,0
16.02.2017 13:00:00 7,9 6,2 8,5 15 8 29 16 WZW 1029,9 7 0,0
16.02.2017 12:00:00 8,0 6,3 8,4 15 8 25 14 WZW 1030,4 7 0,0
16.02.2017 11:00:00 7,2 6,3 7,3 11 6 18 10 ZZW 1030,5 6 0,0

tt = temperatuur
td = dauwpunt
tt 5cm = temperatuur 5cm
ff = windsnelheid
fx = windstoten
dd = windrichting
ppp = luchtdruk
vv = zicht
rr = neerslag

Weerstations in de omgeving